• In Österreich
  • Länderverzeichnis
  • Für 7 Tage
  • Wassertemperatur
  • Satellitenkarten
  • Wetterkarte
  • News
  • Widgets
  • user-avatar
    Anmelden

    Stündliche Wetter Gjirokaster

    Heute, 18 Dezember, Montag

    Zeit Temperatur Niederschläge Wind Luftdruck Luftfeuchtigkeit
    00:00 -2°C° 0 mm 2 m/S 648 mmHg 91%
    01:00 -2°C° 0 mm 2 m/S 648 mmHg 92%
    02:00 -2°C° 0,2 mm 2 m/S 648 mmHg 91%
    03:00 -2°C° 0,2 mm 2 m/S 648 mmHg 91%
    04:00 -2°C° 0,2 mm 2 m/S 648 mmHg 90%
    05:00 -2°C° 0,3 mm 2 m/S 648 mmHg 90%
    06:00 -2°C° 0,3 mm 2 m/S 648 mmHg 90%
    07:00 -2°C° 0,3 mm 2 m/S 648 mmHg 90%
    08:00 -2°C° 0,3 mm 2 m/S 649 mmHg 87%
    09:00 -1°C° 0,3 mm 2 m/S 649 mmHg 83%
    10:00 -1°C° 0,3 mm 2 m/S 649 mmHg 80%
    11:00 -1°C° 0,2 mm 3 m/S 649 mmHg 78%
    12:00 0°C° 0,2 mm 3 m/S 649 mmHg 77%
    13:00 0°C° 0,2 mm 3 m/S 649 mmHg 76%
    14:00 -1°C° 0,2 mm 3 m/S 649 mmHg 79%
    15:00 -2°C° 0,2 mm 3 m/S 649 mmHg 82%
    16:00 -3°C° 0,2 mm 4 m/S 649 mmHg 84%
    17:00 -4°C° 0,2 mm 3 m/S 649 mmHg 86%
    18:00 -4°C° 0,2 mm 3 m/S 649 mmHg 87%
    19:00 -5°C° 0,2 mm 3 m/S 650 mmHg 88%
    20:00 -5°C° 0,1 mm 3 m/S 650 mmHg 87%
    21:00 -5°C° 0,1 mm 3 m/S 650 mmHg 87%
    22:00 -5°C° 0,1 mm 2 m/S 650 mmHg 87%
    23:00 -5°C° 0 mm 2 m/S 651 mmHg 87%

    Morgen, 19 Dezember, Dienstag

    Zeit Temperatur Niederschläge Wind Luftdruck Luftfeuchtigkeit
    00:00 -5°C° 0 mm 2 m/S 651 mmHg 86%
    01:00 -5°C° 0 mm 2 m/S 651 mmHg 86%
    02:00 -6°C° 0 mm 2 m/S 651 mmHg 86%
    03:00 -6°C° 0 mm 2 m/S 651 mmHg 86%
    04:00 -6°C° 0 mm 2 m/S 652 mmHg 86%
    05:00 -6°C° 0 mm 2 m/S 652 mmHg 85%
    06:00 -6°C° 0 mm 2 m/S 652 mmHg 85%
    07:00 -6°C° 0 mm 2 m/S 653 mmHg 85%
    08:00 -5°C° 0 mm 2 m/S 653 mmHg 79%
    09:00 -4°C° 0 mm 2 m/S 654 mmHg 74%
    10:00 -3°C° 0 mm 2 m/S 655 mmHg 68%
    11:00 -3°C° 0 mm 2 m/S 655 mmHg 65%
    12:00 -2°C° 0 mm 2 m/S 655 mmHg 61%
    13:00 -2°C° 0 mm 2 m/S 655 mmHg 58%
    14:00 -2°C° 0 mm 2 m/S 655 mmHg 62%
    15:00 -3°C° 0 mm 2 m/S 654 mmHg 66%
    16:00 -5°C° 0 mm 3 m/S 654 mmHg 70%
    17:00 -5°C° 0 mm 3 m/S 654 mmHg 72%
    18:00 -6°C° 0 mm 3 m/S 655 mmHg 74%
    19:00 -7°C° 0 mm 3 m/S 655 mmHg 75%
    20:00 -6°C° 0 mm 2 m/S 655 mmHg 75%
    21:00 -6°C° 0 mm 2 m/S 655 mmHg 76%
    22:00 -7°C° 0 mm 2 m/S 655 mmHg 76%
    23:00 -7°C° 0 mm 2 m/S 655 mmHg 75%

    übermorgen, 20 Dezember, Mittwoch

    Zeit Temperatur Niederschläge Wind Luftdruck Luftfeuchtigkeit
    00:00 -7°C° 0 mm 2 m/S 655 mmHg 74%
    01:00 -7°C° 0 mm 2 m/S 655 mmHg 74%
    02:00 -7°C° 0 mm 2 m/S 655 mmHg 73%
    03:00 -7°C° 0 mm 2 m/S 654 mmHg 72%
    04:00 -8°C° 0 mm 2 m/S 654 mmHg 72%
    05:00 -8°C° 0 mm 2 m/S 654 mmHg 71%
    06:00 -8°C° 0 mm 2 m/S 655 mmHg 70%
    07:00 -8°C° 0 mm 2 m/S 655 mmHg 70%
    08:00 -6°C° 0 mm 2 m/S 655 mmHg 64%
    09:00 -5°C° 0 mm 2 m/S 656 mmHg 57%
    10:00 -4°C° 0 mm 2 m/S 656 mmHg 51%
    11:00 -3°C° 0 mm 2 m/S 656 mmHg 48%
    12:00 0°C° 0 mm 1 m/S 656 mmHg 46%
    13:00 0°C° 0 mm 1 m/S 656 mmHg 43%
    14:00 -1°C° 0 mm 1 m/S 656 mmHg 47%
    15:00 -4°C° 0 mm 2 m/S 655 mmHg 52%
    16:00 -4°C° 0 mm 2 m/S 655 mmHg 57%
    17:00 -5°C° 0 mm 2 m/S 655 mmHg 60%
    18:00 -6°C° 0 mm 2 m/S 655 mmHg 62%
    19:00 -7°C° 0 mm 2 m/S 655 mmHg 65%
    20:00 -7°C° 0 mm 2 m/S 655 mmHg 66%
    21:00 -7°C° 0 mm 2 m/S 655 mmHg 67%
    22:00 -7°C° 0 mm 2 m/S 655 mmHg 67%
    23:00 -7°C° 0 mm 2 m/S 655 mmHg 67%

    21 Dezember, Donnerstag

    Zeit Temperatur Niederschläge Wind Luftdruck Luftfeuchtigkeit
    00:00 -7°C° 0 mm 2 m/S 655 mmHg 67%
    01:00 -7°C° 0 mm 2 m/S 655 mmHg 66%
    02:00 -8°C° 0 mm 2 m/S 655 mmHg 65%
    03:00 -8°C° 0 mm 2 m/S 655 mmHg 64%
    04:00 -8°C° 0 mm 2 m/S 655 mmHg 64%
    05:00 -8°C° 0 mm 2 m/S 655 mmHg 63%
    06:00 -8°C° 0 mm 2 m/S 655 mmHg 63%
    07:00 -8°C° 0 mm 2 m/S 655 mmHg 62%
    08:00 -6°C° 0 mm 2 m/S 656 mmHg 57%
    09:00 -5°C° 0 mm 2 m/S 657 mmHg 51%
    10:00 -3°C° 0 mm 2 m/S 657 mmHg 46%
    11:00 -3°C° 0 mm 2 m/S 657 mmHg 43%
    12:00 -2°C° 0 mm 2 m/S 657 mmHg 41%
    13:00 -1°C° 0 mm 2 m/S 657 mmHg 38%
    14:00 -2°C° 0 mm 2 m/S 657 mmHg 45%
    15:00 -3°C° 0 mm 2 m/S 656 mmHg 51%
    16:00 -5°C° 0 mm 3 m/S 656 mmHg 57%
    17:00 -6°C° 0 mm 3 m/S 656 mmHg 60%
    18:00 -7°C° 0 mm 3 m/S 656 mmHg 64%
    19:00 -8°C° 0 mm 3 m/S 656 mmHg 68%
    20:00 -8°C° 0 mm 3 m/S 656 mmHg 69%
    21:00 -8°C° 0 mm 3 m/S 656 mmHg 70%
    22:00 -8°C° 0 mm 3 m/S 657 mmHg 71%
    23:00 -8°C° 0 mm 3 m/S 656 mmHg 69%

    22 Dezember, Freitag

    Zeit Temperatur Niederschläge Wind Luftdruck Luftfeuchtigkeit
    00:00 -7°C° 0 mm 2 m/S 656 mmHg 68%
    01:00 -7°C° 0 mm 2 m/S 656 mmHg 66%
    02:00 -7°C° 0 mm 2 m/S 656 mmHg 62%
    03:00 -8°C° 0 mm 3 m/S 656 mmHg 57%
    04:00 -8°C° 0 mm 3 m/S 655 mmHg 53%
    05:00 -8°C° 0 mm 3 m/S 656 mmHg 49%
    06:00 -7°C° 0 mm 3 m/S 656 mmHg 46%
    07:00 -7°C° 0 mm 3 m/S 656 mmHg 42%
    08:00 -4°C° 0 mm 2 m/S 656 mmHg 39%
    09:00 -2°C° 0 mm 2 m/S 656 mmHg 36%
    10:00 +1°C° 0 mm 2 m/S 657 mmHg 33%
    11:00 +2°C° 0 mm 2 m/S 657 mmHg 34%
    12:00 +2°C° 0 mm 2 m/S 656 mmHg 35%
    13:00 +4°C° 0 mm 1 m/S 656 mmHg 35%
    14:00 +2°C° 0 mm 2 m/S 656 mmHg 41%
    15:00 -1°C° 0 mm 2 m/S 655 mmHg 47%
    16:00 -2°C° 0 mm 2 m/S 655 mmHg 52%
    17:00 -3°C° 0 mm 2 m/S 654 mmHg 53%
    18:00 -3°C° 0 mm 2 m/S 654 mmHg 53%
    19:00 -4°C° 0 mm 2 m/S 654 mmHg 53%
    20:00 -4°C° 0 mm 2 m/S 654 mmHg 52%
    21:00 -4°C° 0 mm 2 m/S 654 mmHg 52%
    22:00 -4°C° 0 mm 2 m/S 654 mmHg 51%
    23:00 -4°C° 0 mm 2 m/S 654 mmHg 52%

    23 Dezember, Samstag

    Zeit Temperatur Niederschläge Wind Luftdruck Luftfeuchtigkeit
    00:00 -4°C° 0 mm 2 m/S 654 mmHg 54%
    01:00 -4°C° 0 mm 2 m/S 653 mmHg 55%
    02:00 -4°C° 0 mm 2 m/S 653 mmHg 59%
    03:00 -4°C° 0 mm 2 m/S 653 mmHg 62%
    04:00 -4°C° 0 mm 2 m/S 652 mmHg 66%
    05:00 -4°C° 0 mm 2 m/S 652 mmHg 69%
    06:00 -4°C° 0 mm 2 m/S 652 mmHg 72%
    07:00 -5°C° 0 mm 2 m/S 652 mmHg 75%
    08:00 -3°C° 0 mm 2 m/S 653 mmHg 71%
    09:00 -1°C° 0 mm 2 m/S 653 mmHg 67%
    10:00 +2°C° 0 mm 2 m/S 653 mmHg 63%
    11:00 +3°C° 0 mm 2 m/S 653 mmHg 59%
    12:00 +3°C° 0 mm 2 m/S 652 mmHg 55%
    13:00 +4°C° 0 mm 2 m/S 652 mmHg 51%
    14:00 +3°C° 0 mm 2 m/S 651 mmHg 56%
    15:00 +1°C° 0 mm 2 m/S 651 mmHg 62%
    16:00 -1°C° 0 mm 2 m/S 650 mmHg 67%
    17:00 -2°C° 0 mm 3 m/S 650 mmHg 69%
    18:00 -2°C° 0 mm 3 m/S 650 mmHg 71%
    19:00 -4°C° 0 mm 3 m/S 650 mmHg 73%
    20:00 -4°C° 0 mm 3 m/S 650 mmHg 72%
    21:00 -5°C° 0 mm 3 m/S 650 mmHg 70%
    22:00 -5°C° 0 mm 3 m/S 650 mmHg 69%
    23:00 -5°C° 0 mm 4 m/S 649 mmHg 71%
    Mehr zeigen